EA5SW-13 Weather Reports


time (UTC)temp
C
wind
direction
speed
KPH
gust
KPH
rain 1hr
cm
rain 24hr
cm
rain mn
cm
humidity
%
barometer
mb
20260503202639 18 0.0 0.0 0.00 0.00 0.00 78
20260503201703 18 0.0 0.0 0.00 0.00 0.00 78
20260503200638 -17 0.0 0.0 0.00 0.00 0.00
20260503195702 18 0.0 0.0 0.00 0.00 0.00 77
20260503194638 18 0.0 0.0 0.00 0.00 0.00 77
20260503193702 18 0.0 0.0 0.00 0.00 0.00 76
20260503192638 18 0.0 0.0 0.00 0.00 0.00 76
20260503191723 18 0.0 0.0 0.00 0.00 0.00 75
20260503190638 18 0.0 0.0 0.00 0.00 0.00 75
20260503185703 18 0.0 0.0 0.00 0.00 0.00 74
20260503184638 19 0.0 1.6 0.00 0.00 0.00 74
20260503183723 19 0.0 1.6 0.00 0.00 0.00 73
20260503182639 19 0.0 0.0 0.00 0.00 0.00 73
20260503181703 19 0.0 1.6 0.00 0.00 0.00 73
20260503180638 19 0.0 0.0 0.00 0.00 0.00 71
20260503175703 19 0.0 0.0 0.00 0.00 0.00 71
20260503174639 20 0.0 1.6 0.00 0.00 0.00 70
20260503173703 20 0.0 1.6 0.00 0.00 0.00 70
20260503172639 20 0.0 0.0 0.00 0.00 0.00 70
20260503171702 20 0.0 0.0 0.00 0.00 0.00 70
20260503170639 20 0.0 0.0 0.00 0.00 0.00 70
20260503150700 -17 0.0 0.0 0.00 0.00 0.00
20260503130639 23 0.0 1.6 0.00 0.00 0.00 54
20260503110239 21 0.0 1.6 0.00 0.00 0.00 66
20260503080639 18 0.0 1.6 0.00 0.00 0.00 81
20260503072639 18 0.0 0.0 0.00 0.00 0.00 80
20260503071704 18 0.0 0.0 0.00 0.00 0.00 81
20260503070640 18 0.0 0.0 0.00 0.00 0.00 81
20260503054504 17 0.0 0.0 0.00 0.00 0.00 80
20260503053439 18 0.0 0.0 0.00 0.00 0.00 80
20260503052503 18 0.0 0.0 0.00 0.00 0.00 80
20260503051440 18 0.0 0.0 0.00 0.00 0.00 80
20260503050504 18 0.0 1.6 0.00 0.00 0.00 80
20260503045500 18 0.0 0.0 0.00 0.00 0.00 80
20260503044504 18 0.0 0.0 0.00 0.00 0.00 80
20260503043459 18 0.0 1.6 0.00 0.00 0.00 80
20260503042504 18 0.0 0.0 0.00 0.00 0.00 80
20260503041500 18 0.0 1.6 0.00 0.00 0.00 80
20260503040524 18 0.0 1.6 0.00 0.00 0.00 80
20260503035306 18 0.0 0.0 0.00 0.00 0.00 81
20260503034239 18 0.0 1.6 0.00 0.00 0.00 81
20260503033303 18 0.0 1.6 0.00 0.00 0.00 82
20260503032241 18 0.0 0.0 0.00 0.00 0.00 82
20260503031304 18 0.0 0.0 0.00 0.00 0.00 82
20260503030239 18 0.0 0.0 0.00 0.00 0.00 82
20260503025704 18 0.0 0.0 0.00 0.00 0.00 82
20260503024640 18 0.0 0.0 0.00 0.00 0.00 82
20260503023704 18 0.0 0.0 0.00 0.00 0.00 82
20260503022640 18 0.0 0.0 0.00 0.00 0.00 82
20260503021704 18 0.0 0.0 0.00 0.00 0.00 82
20260503020640 -17 0.0 0.0 0.00 0.00 0.00
20260503015704 18 0.0 0.0 0.00 0.00 0.00 82
20260503014640 18 0.0 0.0 0.00 0.00 0.00 82
20260503013704 18 0.0 0.0 0.00 0.00 0.00 82
20260503012640 18 0.0 0.0 0.00 0.00 0.00 82
20260503011704 18 0.0 0.0 0.00 0.00 0.00 82
20260503010639 18 0.0 1.6 0.00 0.00 0.00 81
20260503005704 18 0.0 1.6 0.00 0.00 0.00 81
20260503004720 18 0.0 1.6 0.00 0.00 0.00 81
20260503003724 18 0.0 0.0 0.00 0.00 0.00 81
20260503002700 18 0.0 0.0 0.00 0.00 0.00 82
20260503001704 18 0.0 1.6 0.00 0.00 0.00 82
20260503000720 -17 0.0 0.0 0.00 0.00 0.00
20260502235724 18 0.0 0.0 0.00 0.00 0.00 81
20260502234640 18 0.0 0.0 0.00 0.00 0.00 81
20260502233704 18 0.0 0.0 0.00 0.00 0.00 81
20260502232640 18 0.0 0.0 0.00 0.00 0.00 81
20260502231704 18 0.0 1.6 0.00 0.00 0.00 81
20260502230640 18 0.0 0.0 0.00 0.00 0.00 81
20260502225704 18 0.0 0.0 0.00 0.00 0.00 81
20260502224640 18 0.0 0.0 0.00 0.00 0.00 80
20260502223704 18 0.0 0.0 0.00 0.00 0.00 80
20260502222640 18 0.0 0.0 0.00 0.00 0.00 80
20260502221704 18 0.0 0.0 0.00 0.00 0.00 80
20260502220640 -17 0.0 0.0 0.00 0.00 0.00
20260502215704 18 0.0 0.0 0.00 0.00 0.00 80
20260502214640 18 0.0 0.0 0.00 0.00 0.00 80
20260502213704 18 0.0 0.0 0.00 0.00 0.00 80
20260502212641 18 0.0 0.0 0.00 0.00 0.00 80
20260502211704 18 0.0 0.0 0.00 0.00 0.00 80
20260502210700 -17 0.0 0.0 0.00 0.00 0.00
20260502205704 18 0.0 0.0 0.00 0.00 0.00 80
20260502204640 18 0.0 0.0 0.00 0.00 0.00 80
20260502203704 18 0.0 0.0 0.00 0.00 0.00 80